Weather in Basy

Russia / Astrakhan Oblast     46°06′54″N   47°07′52″E
temp.,
°C
wind,
m/s
gust,
m/s
humid.,
%
clouds,
%
prec.,
mm/h
press.,
hPa
HPBL,
m
1 march, mon
mon101:000nnw2279100 0.0 101926
04:00+1wnw1179100 0.0 102021
07:000wnw338691 0.0 102149
10:00+2nw358281 0.0 1023372
13:00+4w467865 0.1 1025679
16:00+5wnw456780 0.3 1024955
19:00+3nnw2288100 0.1 102573
22:00+2nne009299 0.1 102622
2 march, tue
tue201:00+2w2396100 0.0 1026107
04:00+1wnw2396100 0.1 1027177
07:00+1wnw2498100 0.1 1027249
10:00+2w568794 0.1 1028566
13:00+3w677494 0.1 1026878
16:00+4w7106497 0.1 10241154
19:00+4wsw5107098 0.0 1022630
22:00+4wsw6126899 0.0 1021504
3 march, wed
wed301:00+3wsw71476100 0.0 1018492
04:00+3wsw91583100 0.0 1016899
07:00+2wsw91674100 0.0 1015889
10:00+3wsw121786100 0.1 10151166
13:00+5w121684100 0.3 10141198
16:00+3w91390100 1.0 1013953
19:00+3wnw6117798 0.1 1016856
22:00+1wnw5127577 0.1 1018439
4 march, thu
thu401:000wnw612800 0.0 1019548
04:00−1nw597445 0.2 1022837
07:00−2nw6106817 0.0 1024592
10:00+1w68579 0.0 1027687
13:00+4w68460 0.0 10261127
16:00+5wsw78430 0.0 10241197
19:00+3sw46530 0.0 1023143
22:00+2s611570 0.0 1024256
5 march, fri
fri501:00+1ssw814610 0.0 1023323
04:000ssw612750 0.0 1022290
07:000ssw410870 0.0 1022254
10:00+3ssw69730 0.0 1022398
13:00+8sw67520 0.0 1021775
16:00+9wsw45420 0.0 10201153
19:00+6ssw34610 0.0 102074
22:00+4ssw58810 0.0 1021204